Overview Statistics Trail Chart Weather Telemetry Raw packets
 

This is the latest recevied weather packets stored in our database for station/object DF7ER-12. If no packets are shown the sender has not sent any weather packets the latest 10 day(s).

<< 67 68 69 70 71 72 73 >>
Time Temp. Humidity Pressure Rain* Wind** Luminosity Snow
1788194149 23.89° C 72% 999.6 hPa - - - -
1788193849 23.89° C 71% 999.6 hPa - - - -
1788193549 23.89° C 71% 999.5 hPa - - - -
1788193249 23.89° C 71% 999.6 hPa - - - -
1788192949 23.89° C 71% 999.6 hPa - - - -
1788192649 23.89° C 72% 999.4 hPa - - - -
1788192349 23.89° C 71% 999.4 hPa - - - -
1788192050 23.89° C 72% 999.3 hPa - - - -
1788191750 23.89° C 73% 999.2 hPa - - - -
1788191449 24.44° C 72% 999.1 hPa - - - -
1788191149 24.44° C 72% 999 hPa - - - -
1788190850 24.44° C 72% 999 hPa - - - -
1788190549 24.44° C 74% 999 hPa - - - -
1788190249 25° C 75% 999 hPa - - - -
1788189681 24.44° C 79% 998.9 hPa - - - -
1788189381 24.44° C 81% 998.9 hPa - - - -
1788189081 25° C 78% 999 hPa - - - -
1788188781 25° C 78% 999 hPa - - - -
1788188481 25° C 78% 999.1 hPa - - - -
1788188181 25° C 76% 999.2 hPa - - - -
1788187881 25° C 75% 999.2 hPa - - - -
1788187581 25° C 70% 999.4 hPa - - - -
1788187281 25.56° C 63% 998.8 hPa - - - -
1788186981 26.11° C 63% 998.8 hPa - - - -
1788186681 25.56° C 64% 998.7 hPa - - - -

* Rain since midnight (hover to see other rain measurements)
** Current wind speed in m/s (hover to see current wind gust speed)